Weather History for GEML - March, 2014

Change the Weather History Date:

Tuesday, March 18, 2014

  Actual Average Record
Temperature  
Mean Temperature 57 °F -  
Max Temperature 64 °F 68 °F 75 °F (1999)
Min Temperature 50 °F 55 °F 48 °F (1997)
Degree Days  
Heating Degree Days 8    
Growing Degree Days 7 (Base 50)    
Moisture  
Dew Point 54 °F    
Average Humidity 84    
Maximum Humidity 94    
Minimum Humidity 70    
Precipitation  
Precipitation 0.00 in 0.06 in - ()
Sea Level Pressure  
Sea Level Pressure 30.12 in    
Wind  
Wind Speed 2 mph ()    
Max Wind Speed 6 mph    
Max Gust Speed -    
Visibility 3.3 miles    
Events Fog    
Averages and records for this station are not official NWS values.
T = Trace of Precipitation, MM = Missing Value Source: Averaged Metar Reports

Daily Weather History Graph

Daily Weather History Graph

Search for Another Location

Airport or City:

Trip Planner

Search our weather history database for the weather conditions in past years. The results will help you decide how hot, cold, wet, or windy it might be!

Date:

Astronomy

Mar. 18, 2014 Rise Set
Actual Time 7:18 AM CET 7:21 PM CET
Civil Twilight 6:53 AM CET 7:47 PM CET
Nautical Twilight 6:23 AM CET 8:16 PM CET
Astronomical Twilight 5:53 AM CET 8:46 PM CET
Moon 9:18 PM CET (3/18) 8:04 AM CET (3/18)
Length of Visible Light 12h 53m
Length of Day
12h 03m
Full, 97% of the Moon is Illuminated
Mar 18
Full
Mar 24
Last Quarter
Mar 30
New
Apr 7
First Quarter
Apr 15
Full

Hourly Weather History & Observations

Time (CET) Temp. Dew Point Humidity Pressure Visibility Wind Dir Wind Speed Gust Speed Precip Events Conditions
6:00 AM 51.8 °F 48.2 °F 88% 30.09 in 1.9 mi Variable 2.3 mph - N/A Fog Patches of Fog
6:30 AM 51.8 °F 48.2 °F 88% 30.12 in 1.9 mi WNW 2.3 mph - N/A Fog Patches of Fog
7:00 AM 50.0 °F 48.2 °F 94% 30.12 in 2.2 mi NW 3.5 mph - N/A Fog Patches of Fog
7:30 AM 50.0 °F 48.2 °F 94% 30.12 in 1.9 mi NW 2.3 mph - N/A Fog Patches of Fog
8:00 AM 50.0 °F 48.2 °F 94% 30.12 in 1.2 mi Variable 1.2 mph - N/A Fog Patches of Fog
8:10 AM 51.8 °F 50.0 °F 94% 30.12 in 0.1 mi NNW 1.2 mph - N/A Fog Fog
8:30 AM 51.8 °F 50.0 °F 94% 30.15 in 0.0 mi Variable 1.2 mph - N/A Fog Fog
9:00 AM 53.6 °F 51.8 °F 94% 30.15 in 0.1 mi Calm Calm - N/A Fog Fog
9:30 AM 53.6 °F 51.8 °F 94% 30.15 in 0.2 mi Calm Calm - N/A Fog Fog
10:00 AM 55 °F 53 °F 92% 30.16 in 1 mi Calm Calm - -   Mist
10:00 AM 55.4 °F 53.6 °F 94% 30.15 in 1.6 mi Variable 1.2 mph - N/A   Scattered Clouds
10:30 AM 57.2 °F 55.4 °F 94% 30.15 in 1.6 mi Variable 2.3 mph - N/A   Partly Cloudy
11:00 AM 57.2 °F 55.4 °F 94% 30.15 in 1.6 mi ENE 3.5 mph - N/A   Scattered Clouds
11:30 AM 57.2 °F 53.6 °F 88% 30.15 in 1.6 mi Variable 2.3 mph - N/A   Scattered Clouds
12:00 PM 59.0 °F 55.4 °F 88% 30.15 in 1.9 mi Variable 2.3 mph - N/A   Scattered Clouds
12:30 PM 60.8 °F 55.4 °F 82% 30.15 in 4.3 mi ENE 3.5 mph - N/A   Partly Cloudy
1:00 PM 61 °F 55 °F 75% 30.15 in 2 mi ENE 4.6 mph - -   Mist
1:00 PM 60.8 °F 55.4 °F 82% 30.15 in 4.3 mi ENE 4.6 mph - N/A   Partly Cloudy
1:30 PM 60.8 °F 55.4 °F 82% 30.12 in 1.9 mi ENE 4.6 mph - N/A   Partly Cloudy
2:00 PM 60.8 °F 55.4 °F 82% 30.12 in 1.9 mi ENE 3.5 mph - N/A   Partly Cloudy
2:30 PM 60.8 °F 55.4 °F 82% 30.09 in 5.0 mi Variable 2.3 mph - N/A   Partly Cloudy
3:00 PM 62.6 °F 55.4 °F 77% 30.09 in 5.0 mi ENE 3.5 mph - N/A   Partly Cloudy
3:30 PM 64.4 °F 57.2 °F 77% 30.09 in 5.6 mi ENE 3.5 mph - N/A   Partly Cloudy
4:00 PM 64 °F 56 °F 70% 30.10 in 5 mi ENE 4.6 mph - -   Mist
4:00 PM 64.4 °F 57.2 °F 77% 30.09 in 5.0 mi East 3.5 mph - N/A   Partly Cloudy
4:30 PM 64.4 °F 55.4 °F 73% 30.09 in 5.0 mi ENE 3.5 mph - N/A   Partly Cloudy
5:00 PM 64.4 °F 55.4 °F 73% 30.09 in 5.0 mi ESE 3.5 mph - N/A   Partly Cloudy
5:30 PM 64.4 °F 55.4 °F 73% 30.09 in 5.0 mi ESE 5.8 mph - N/A   Partly Cloudy
6:00 PM 62.6 °F 55.4 °F 77% 30.09 in 5.0 mi SE 5.8 mph - N/A   Partly Cloudy
6:30 PM 62.6 °F 55.4 °F 77% 30.09 in 5.0 mi ESE 5.8 mph - N/A   Partly Cloudy
7:00 PM 61 °F 56 °F 79% 30.09 in 12 mi SE 5.8 mph - -   Clear
7:00 PM 60.8 °F 55.4 °F 82% 30.09 in - ESE 5.8 mph - N/A   Clear
7:30 PM 60.8 °F 55.4 °F 82% 30.09 in - Variable 2.3 mph - N/A   Clear
10:00 PM 59 °F 55 °F 81% 30.11 in 7 mi SE 2.3 mph - -   Clear
11:30 PM 57.2 °F 51.8 °F 82% 30.12 in 5.0 mi Calm Calm - N/A   Partly Cloudy